Location: Auckland
(36.8670°S, 174.7670°E)
Time: 16:25:50
(UTC+12:00)

S-56A Canister/Altair - All Passes

Search period start: 23 August 2019 00:00
Search period end: 02 September 2019 00:00
Orbit: 633 x 2499 km, 38.9° (Epoch: 21 August)

Date Brightness Start Highest point End Pass type
(mag) Time Alt. Az. Time Alt. Az. Time Alt. Az.
23 Aug - 06:51:45 10° NNW 07:02:39 40° NE 07:15:59 10° ESE daylight
23 Aug - 08:54:41 10° WNW 09:08:18 79° NNE 09:23:29 10° ESE daylight
23 Aug - 11:00:44 10° W 11:15:52 83° S 11:29:59 10° E daylight
23 Aug - 13:08:01 10° WSW 13:23:22 84° NNW 13:35:26 10° ENE daylight
23 Aug - 15:15:54 10° WSW 15:28:46 43° NW 15:38:17 10° NNE daylight
24 Aug - 06:19:25 10° NNW 06:29:29 35° NE 06:42:01 10° ESE visible
24 Aug - 08:21:41 10° WNW 08:34:41 75° NNE 08:49:56 10° ESE daylight
24 Aug - 10:27:17 10° W 10:42:04 83° S 10:56:41 10° E daylight
24 Aug - 12:34:19 10° WSW 12:49:47 87° NNW 13:02:30 10° ENE daylight
24 Aug - 14:41:57 10° WSW 14:55:38 49° NW 15:05:54 10° NNE daylight
24 Aug - 16:53:34 10° W 16:58:47 14° WNW 17:03:23 10° NNW daylight
25 Aug - 05:47:15 10° N 05:56:25 30° NE 06:07:54 10° E visible
25 Aug - 07:48:48 10° NW 08:01:08 70° NNE 08:16:17 10° ESE daylight
25 Aug - 09:53:56 10° W 10:08:17 84° S 10:23:17 10° E daylight
25 Aug - 12:00:42 10° WSW 12:16:06 90° ENE 12:29:28 10° ENE daylight
25 Aug - 14:08:05 10° WSW 14:22:24 55° NW 14:33:25 10° NE daylight
25 Aug - 16:18:21 10° W 16:26:00 18° NW 16:32:26 10° NNW daylight
26 Aug - 05:15:17 10° N 05:23:26 25° NE 05:33:38 10° E visible
26 Aug - 07:16:02 10° NW 07:27:40 65° NNE 07:42:33 10° ESE daylight
26 Aug - 09:20:41 10° W 09:34:30 86° S 09:49:48 10° E daylight
26 Aug - 11:27:09 10° W 11:42:22 88° SSE 11:56:19 10° ENE daylight
26 Aug - 13:34:18 10° WSW 13:49:03 60° NNW 14:00:47 10° NE daylight
26 Aug - 15:43:40 10° W 15:53:07 22° NW 16:00:55 10° N daylight
27 Aug - 04:43:33 10° N 04:50:33 21° NE 04:59:10 10° E visible
27 Aug - 06:43:23 10° NW 06:54:18 60° NNE 07:08:46 10° ESE daylight
27 Aug - 08:47:33 10° WNW 09:00:46 88° SSW 09:16:13 10° E daylight
27 Aug - 10:53:41 10° W 11:08:36 86° S 11:23:04 10° E daylight
27 Aug - 13:00:35 10° WSW 13:15:37 66° NNW 13:28:03 10° NE daylight
27 Aug - 15:09:15 10° W 15:20:09 27° NW 15:29:04 10° N daylight
28 Aug - 04:12:12 10° NNE 04:17:46 16° NE 04:24:22 10° E visible
28 Aug - 06:10:51 10° NW 06:21:03 54° NE 06:34:55 10° ESE visible
28 Aug - 08:14:31 10° WNW 08:27:06 90° S 08:42:33 10° ESE daylight
28 Aug - 10:20:19 10° W 10:34:49 84° S 10:49:42 10° E daylight
28 Aug - 12:26:57 10° WSW 12:42:04 70° NNW 12:55:11 10° NE daylight
28 Aug - 14:35:04 10° WSW 14:47:06 31° NW 14:57:00 10° N daylight
29 Aug - 03:41:39 10° NE 03:45:03 12° ENE 03:48:50 10° ENE visible
29 Aug - 05:38:26 10° NNW 05:47:54 48° NE 06:01:00 10° ESE visible
29 Aug - 07:41:35 10° WNW 07:53:29 87° NNE 08:08:51 10° ESE daylight
29 Aug - 09:47:03 10° W 10:01:02 83° S 10:16:14 10° E daylight
29 Aug - 11:53:25 10° WSW 12:08:28 75° NNW 12:22:11 10° ENE daylight
29 Aug - 14:01:02 10° WSW 14:13:55 36° NW 14:24:43 10° NNE daylight
30 Aug - 05:06:09 10° NNW 05:14:52 42° NE 05:27:02 10° ESE visible
30 Aug - 07:08:45 10° WNW 07:19:58 84° NNE 07:35:03 10° ESE daylight
30 Aug - 09:13:51 10° W 09:27:16 83° S 09:42:39 10° E daylight
30 Aug - 11:19:57 10° WSW 11:34:49 79° NNW 11:49:05 10° ENE daylight
30 Aug - 13:27:08 10° WSW 13:40:40 41° NW 13:52:17 10° NNE daylight
30 Aug - 15:43:13 10° WNW 15:44:10 10° WNW 15:45:04 10° NW daylight
31 Aug - 04:33:59 10° NNW 04:41:57 36° NE 04:53:00 10° ESE visible
31 Aug - 06:36:02 10° WNW 06:46:32 79° NNE 07:01:14 10° ESE daylight
31 Aug - 08:40:46 10° W 08:53:32 82° S 09:09:00 10° E daylight
31 Aug - 10:46:36 10° WSW 11:01:07 83° NNW 11:15:50 10° ENE daylight
31 Aug - 12:53:23 10° WSW 13:07:19 46° NW 13:19:42 10° NNE daylight
31 Aug - 15:05:18 10° W 15:11:13 14° NW 15:16:41 10° NNW daylight
01 Sep - 04:01:58 10° N 04:09:08 30° NE 04:18:55 10° E visible
01 Sep - 06:03:24 10° WNW 06:13:13 75° NNE 06:27:23 10° ESE visible
01 Sep - 08:07:46 10° W 08:19:52 83° S 08:35:16 10° E daylight
01 Sep - 10:13:19 10° WSW 10:27:24 86° NNW 10:42:28 10° ENE daylight
01 Sep - 12:19:44 10° WSW 12:33:54 51° NW 12:46:58 10° NNE daylight
01 Sep - 14:30:00 10° W 14:38:12 17° NW 14:45:42 10° NNW daylight
